Location: Minneapolis
(44.9800°N, 93.2640°W)
Time: 15:31:25
(UTC-05:00)

ISS - Visible Passes

Search period start: 22 July 2018 00:00
Search period end: 01 August 2018 00:00
Orbit: 402 x 408 km, 51.6° (Epoch: 22 July)

Date Brightness Start Highest point End Pass type
(mag) Time Alt. Az. Time Alt. Az. Time Alt. Az.
22 Jul -1.5 01:17:19 10° NW 01:20:09 26° N 01:22:59 10° ENE visible
22 Jul -3.4 02:53:47 10° NW 02:57:04 62° NNE 03:00:20 10° ESE visible
22 Jul -2.5 04:30:45 10° W 04:33:19 21° SW 04:35:52 10° S visible
22 Jul -2.4 22:47:38 10° W 22:50:46 40° NNW 22:53:54 10° NE visible
23 Jul -1.4 00:25:03 10° WNW 00:27:50 24° N 00:30:36 10° ENE visible
23 Jul -1.8 02:01:42 10° NW 02:03:28 26° NW 02:03:28 26° NW visible
23 Jul -3.2 21:55:19 10° WSW 21:58:33 58° NNW 22:01:48 10° NE visible
23 Jul -1.5 23:32:41 10° WNW 23:35:29 25° N 23:38:18 10° NE visible
24 Jul -1.9 01:09:36 10° NW 01:12:08 30° N 01:12:08 30° N visible
24 Jul -1.7 22:40:15 10° WNW 22:43:10 29° NNW 22:46:05 10° NE visible
25 Jul -1.7 00:17:26 10° NW 00:20:18 27° N 00:21:14 23° NE visible
25 Jul -2.1 21:47:48 10° W 21:50:51 36° NNW 21:53:56 10° NE visible
25 Jul -1.5 23:25:10 10° NW 23:27:56 24° N 23:30:30 11° ENE visible
26 Jul -1.5 01:01:44 10° NW 01:03:06 22° NW 01:03:06 22° NW visible
26 Jul -1.5 22:32:47 10° WNW 22:35:34 25° N 22:38:21 10° NE visible
27 Jul -2.2 00:09:36 10° NW 00:12:27 34° N 00:12:27 34° N visible
27 Jul -1.7 21:40:20 10° WNW 21:43:12 27° N 21:46:04 10° NE visible
27 Jul -1.9 23:17:25 10° NW 23:20:19 28° N 23:21:49 20° NE visible
28 Jul -1.0 00:53:50 10° WNW 00:54:27 15° WNW 00:54:27 15° WNW visible
28 Jul -1.7 22:25:09 10° NW 22:27:56 25° N 22:30:45 10° ENE visible
29 Jul -2.3 00:01:39 10° NW 00:03:52 36° NNW 00:03:52 36° NNW visible
29 Jul -1.6 21:32:46 10° WNW 21:35:32 24° N 21:38:18 10° NE visible
29 Jul -2.6 23:09:30 10° NW 23:12:36 38° NNE 23:13:18 33° NE visible
30 Jul -2.1 22:17:17 10° NW 22:20:14 30° NNE 22:22:45 13° ENE visible
30 Jul -2.0 23:53:41 10° WNW 23:55:23 28° WNW 23:55:23 28° WNW visible
31 Jul -1.9 21:25:01 10° NW 21:27:50 26° N 21:30:39 10° ENE visible
31 Jul -3.7 23:01:28 10° WNW 23:04:43 65° NNE 23:04:52 64° NE visible
